TimePST,TemperatureF,Dew PointF,Humidity,Sea Level PressureIn,VisibilityMPH,Wind Direction,Wind SpeedMPH,Gust SpeedMPH,PrecipitationIn,Events,Conditions,WindDirDegrees,DateUTC
12:52 AM,55.9,21.0,26,30.17,10.0,North,3.5,-,N/A,,Clear,10,2014-01-24 08:52:00
1:52 AM,57.0,18.0,22,30.17,10.0,ENE,5.8,-,N/A,,Clear,70,2014-01-24 09:52:00
2:52 AM,55.0,19.9,25,30.18,10.0,South,4.6,-,N/A,,Clear,180,2014-01-24 10:52:00
3:52 AM,52.0,19.9,28,30.19,10.0,Calm,Calm,-,N/A,,Clear,0,2014-01-24 11:52:00
4:52 AM,54.0,21.9,29,30.20,10.0,Calm,Calm,-,N/A,,Clear,0,2014-01-24 12:52:00
5:52 AM,55.0,21.0,27,30.22,10.0,North,4.6,-,N/A,,Clear,10,2014-01-24 13:52:00
6:52 AM,57.0,19.9,24,30.23,10.0,NNW,11.5,-,N/A,,Clear,340,2014-01-24 14:52:00
7:52 AM,57.9,21.0,24,30.26,10.0,North,5.8,-,N/A,,Clear,350,2014-01-24 15:52:00
8:52 AM,64.0,21.0,19,30.27,10.0,North,11.5,-,N/A,,Clear,350,2014-01-24 16:52:00
9:52 AM,64.9,26.1,23,30.30,10.0,NE,3.5,-,N/A,,Clear,50,2014-01-24 17:52:00
10:52 AM,69.1,24.1,18,30.29,10.0,NE,6.9,-,N/A,,Clear,40,2014-01-24 18:52:00
11:52 AM,71.1,18.0,13,30.26,10.0,NNE,13.8,-,N/A,,Clear,20,2014-01-24 19:52:00
12:52 PM,71.1,18.0,13,30.23,10.0,NNE,13.8,-,N/A,,Clear,20,2014-01-24 20:52:00
1:52 PM,71.1,18.0,13,30.21,10.0,NNE,12.7,-,N/A,,Clear,20,2014-01-24 21:52:00
2:52 PM,72.0,18.0,13,30.21,10.0,North,6.9,-,N/A,,Clear,360,2014-01-24 22:52:00
3:52 PM,71.1,19.0,14,30.21,10.0,NNE,4.6,-,N/A,,Partly Cloudy,30,2014-01-24 23:52:00
4:52 PM,70.0,18.0,14,30.21,10.0,North,9.2,-,N/A,,Clear,360,2014-01-25 00:52:00
5:52 PM,66.9,19.0,16,30.21,10.0,North,11.5,-,N/A,,Clear,350,2014-01-25 01:52:00
6:52 PM,66.0,18.0,16,30.21,10.0,NNW,10.4,-,N/A,,Clear,340,2014-01-25 02:52:00
7:52 PM,66.0,18.0,16,30.22,10.0,NNW,9.2,-,N/A,,Clear,340,2014-01-25 03:52:00
8:52 PM,64.9,19.0,17,30.22,10.0,NNE,8.1,-,N/A,,Scattered Clouds,20,2014-01-25 04:52:00
9:52 PM,64.0,18.0,17,30.23,10.0,NE,5.8,-,N/A,,Clear,40,2014-01-25 05:52:00
10:52 PM,61.0,24.1,24,30.23,10.0,East,5.8,-,N/A,,Mostly Cloudy,80,2014-01-25 06:52:00
11:52 PM,60.1,25.0,26,30.23,10.0,East,3.5,-,N/A,,Overcast,100,2014-01-25 07:52:00